Torna al catalogo

SL-8 R/B

AttivoLEO
NORAD 9023·ROCKET BODY·🇷🇺 Russia

Lanciato Jul 15, 1976 da Plesetsk Cosmodrome

Loading…

Prossimi Passaggi (prossime 24 ore)

TLE

AggiornatoSource: Space-Track

Epoca: Sep 14, 2026, 05:34 UTC

1 09023U 76069B   26257.23259891  .00000143  00000-0  52372-4 0  9994
2 09023  74.0445 340.9260 0016591  28.6048 331.6015 14.41262415630507

Traccia SL-8 R/B in tempo reale con AllMySat

Download on the App Store